This demonstration page uses our WeatherBlox Daily Observations layout. Learn more.

Left ArrowRight Arrow

38.88101, -77.10428

Hourly Observations for June 15, 2021

Temp ( °F °C ) Dew Point ( °F °C ) Humidity (%) Winds ( mph kmh ) Pressure ( in mb ) Visibility ( mi km ) Precip ( " mm )
12:13 am 00:13 Cloudy with Thunderstorms 68 20 64 17.8 87 87 N 6 9 29.79 1009 6 10 0.08 2.03
12:27 am 00:27 Cloudy 69 20.6 64 17.8 84 84 N N/A 29.78 1008 10 16 0.08 2.03
12:52 am 00:52 Cloudy with Light Rain 69 20.6 65 18.3 87 87 N N/A 29.79 1009 10 16 0.08 2.03
1:52 am 01:52 Cloudy 69 20.6 65 18.3 87 87 NW 8 13 29.77 1008 10 16 0.00 0.00
2:52 am 02:52 Cloudy with Light Rain 69 20.6 66 18.9 90 90 NNW 9 15 29.77 1008 10 16 0.00 0.00
3:10 am 03:10 Cloudy 69 20.6 65 18.3 87 87 NNW 6 9 29.78 1008 10 16 0.00 0.00
3:52 am 03:52 Cloudy 69 20.6 65 18.3 87 87 NW 9 15 29.78 1009 10 16 0.00 0.00
4:52 am 04:52 Mostly Cloudy 68 20 63 17.2 84 84 NW 10 17 29.78 1009 10 16 N/A
5:20 am 05:20 Partly Cloudy 68 20 63 17.2 84 84 NW 7 11 29.80 1009 10 16 N/A
5:52 am 05:52 Partly Cloudy 66 18.9 62 16.7 87 87 NNW 6 9 29.80 1009 10 16 N/A
6:52 am 06:52 Mostly Sunny 68 20 62 16.7 81 81 NNW 8 13 29.81 1009 10 16 N/A
7:52 am 07:52 Mostly Sunny 70 21.1 62 16.7 76 76 NNW 10 17 29.82 1010 10 16 N/A
8:52 am 08:52 Mostly Sunny 73 22.8 62 16.7 69 69 NNW 12 19 29.83 1010 10 16 N/A
9:52 am 09:52 Mostly Sunny 74 23.3 61 16.1 64 64 NW 13 20 29.83 1010 10 16 N/A
10:52 am 10:52 Mostly Sunny 75 23.9 60 15.6 60 60 NW 12 19 29.83 1010 10 16 N/A
11:52 am 11:52 Partly Cloudy 78 25.6 58 14.4 50 50 NNW 14 22 29.84 1011 10 16 N/A
12:52 pm 12:52 Partly Cloudy 80 26.7 57 13.9 45 45 NW 12 19 29.85 1011 10 16 N/A
1:52 pm 13:52 Partly Cloudy 79 26.1 56 13.3 45 45 NW 10 17 29.84 1011 10 16 N/A
2:52 pm 14:52 Partly Cloudy 81 27.2 55 12.8 41 41 WNW 15 24 29.83 1010 10 16 N/A
3:52 pm 15:52 Mostly Cloudy 81 27.2 56 13.3 42 42 NNW 13 20 29.83 1010 10 16 N/A
4:52 pm 16:52 Mostly Cloudy 78 25.6 55 12.8 45 45 N 20 31 29.82 1010 10 16 N/A
6:52 pm 18:52 Partly Cloudy 78 25.6 54 12.2 43 43 NNW 14 22 29.83 1010 10 16 N/A
7:52 pm 19:52 Partly Cloudy 77 25 54 12.2 45 45 NW 8 13 29.83 1010 10 16 N/A
8:52 pm 20:52 Partly Cloudy 75 23.9 55 12.8 50 50 NNW 9 15 29.83 1010 10 16 N/A
9:52 pm 21:52 Partly Cloudy 75 23.9 53 11.7 46 46 NW 12 19 29.85 1011 10 16 N/A
10:52 pm 22:52 Partly Cloudy 72 22.2 54 12.2 53 53 NNW 8 13 29.86 1011 10 16 N/A
11:52 pm 23:52 Partly Cloudy 71 21.7 54 12.2 55 55 NW 9 15 29.86 1011 10 16 N/A

Powered by AerisWeather